Back to catalog

STARLINK-11097

AliveCommunicationsVLEO
NORAD 59759·PAYLOAD·🇺🇸 United States

Launched May 14, 2024 from Vandenberg Space Force Base

Loading…

Next Passes (next 24 hours)

TLE

FreshSource: CelesTrak SupGP

Epoch: Sep 14, 2026, 14:59 UTC

1 59759C 24091G   26257.62479167  .00025663  00000+0  21144-3 0  2578
2 59759  53.1571 354.8724 0001142  77.8335  75.0791 15.69690778    11

Track STARLINK-11097 in real time with AllMySat

Download on the App Store